iso_date,epoch_date,Year,Hour,Min,DOY,POS_DOY,Lat,Lon,BP,Ts,Ta,has_bp,has_ts,has_ta,BuoyID,Buoy_Type,Buoy_Owner,Logistics,Hemisphere
2018-03-27T08:02:24Z,1522137744,2018,8,2,86.335,86.335,-66.991,179.4214,1003.0,-0.58,-999.0,yes,yes,no,300234065333790,BD2GI,AOML,Palmer,South
2018-03-27T09:00:00Z,1522141200,2018,9,0,86.375,86.375,-66.9856,179.4136,1003.0,-0.51,-999.0,yes,yes,no,300234065333790,BD2GI,AOML,Palmer,South
2018-03-27T10:00:28Z,1522144829,2018,10,0,86.417,86.417,-66.9814,179.4024,1004.0,-0.51,-999.0,yes,yes,no,300234065333790,BD2GI,AOML,Palmer,South
2018-03-27T10:59:31Z,1522148371,2018,11,0,86.458,86.458,-66.978,179.3856,1005.0,-0.51,-999.0,yes,yes,no,300234065333790,BD2GI,AOML,Palmer,South
2018-03-27T12:00:00Z,1522152000,2018,12,0,86.5,86.5,-66.9764,179.3688,1005.9,-0.51,-999.0,yes,yes,no,300234065333790,BD2GI,AOML,Palmer,South
2018-03-27T13:00:28Z,1522155629,2018,13,0,86.542,86.542,-66.976,179.3538,1008.0,-0.54,-999.0,yes,yes,no,300234065333790,BD2GI,AOML,Palmer,South
2018-03-27T13:59:31Z,1522159171,2018,14,0,86.583,86.583,-66.9762,179.3418,1007.0,-0.54,-999.0,yes,yes,no,300234065333790,BD2GI,AOML,Palmer,South
2018-03-27T15:00:00Z,1522162800,2018,15,0,86.625,86.625,-66.9776,179.3308,1005.9,-0.54,-999.0,yes,yes,no,300234065333790,BD2GI,AOML,Palmer,South
2018-03-27T16:00:28Z,1522166429,2018,16,0,86.667,86.667,-66.9796,179.3224,1004.6,-0.54,-999.0,yes,yes,no,300234065333790,BD2GI,AOML,Palmer,South
2018-03-27T16:59:31Z,1522169971,2018,17,0,86.708,86.708,-66.9824,179.3198,1003.8,-0.58,-999.0,yes,yes,no,300234065333790,BD2GI,AOML,Palmer,South
2018-03-27T18:00:00Z,1522173600,2018,18,0,86.75,86.75,-66.984,179.3234,1003.6,-0.61,-999.0,yes,yes,no,300234065333790,BD2GI,AOML,Palmer,South
2018-03-27T19:00:28Z,1522177229,2018,19,0,86.792,86.792,-66.9844,179.3296,1003.1,-0.61,-999.0,yes,yes,no,300234065333790,BD2GI,AOML,Palmer,South
2018-03-27T19:59:31Z,1522180771,2018,20,0,86.833,86.833,-66.9824,179.3372,1002.8,-0.61,-999.0,yes,yes,no,300234065333790,BD2GI,AOML,Palmer,South
2018-03-27T21:00:00Z,1522184400,2018,21,0,86.875,86.875,-66.9784,179.3432,1003.1,-0.61,-999.0,yes,yes,no,300234065333790,BD2GI,AOML,Palmer,South
2018-03-27T22:00:28Z,1522188029,2018,22,0,86.917,86.917,-66.974,179.3456,1003.8,-0.58,-999.0,yes,yes,no,300234065333790,BD2GI,AOML,Palmer,South
2018-03-27T22:59:31Z,1522191571,2018,23,0,86.958,86.958,-66.9698,179.3458,1004.7,-0.58,-999.0,yes,yes,no,300234065333790,BD2GI,AOML,Palmer,South
2018-03-28T00:00:00Z,1522195200,2018,0,0,87.0,87.0,-66.9664,179.3426,1007.2,-0.51,-999.0,yes,yes,no,300234065333790,BD2GI,AOML,Palmer,South
2018-03-28T01:00:28Z,1522198829,2018,1,0,87.042,87.042,-66.9656,179.3394,1006.5,-0.51,-999.0,yes,yes,no,300234065333790,BD2GI,AOML,Palmer,South
2018-03-28T01:59:31Z,1522202371,2018,2,0,87.083,87.083,-66.9662,179.3322,1005.3,-0.54,-999.0,yes,yes,no,300234065333790,BD2GI,AOML,Palmer,South
2018-03-28T03:00:00Z,1522206000,2018,3,0,87.125,87.125,-66.9678,179.3304,1006.8,-0.54,-999.0,yes,yes,no,300234065333790,BD2GI,AOML,Palmer,South
2018-03-28T04:00:28Z,1522209629,2018,4,0,87.167,87.167,-66.9712,179.3256,1006.4,-0.54,-999.0,yes,yes,no,300234065333790,BD2GI,AOML,Palmer,South
2018-03-28T04:59:31Z,1522213171,2018,5,0,87.208,87.208,-66.9744,179.329,1006.1,-0.51,-999.0,yes,yes,no,300234065333790,BD2GI,AOML,Palmer,South
2018-03-28T06:00:00Z,1522216800,2018,6,0,87.25,87.25,-66.9778,179.3324,1006.5,-0.51,-999.0,yes,yes,no,300234065333790,BD2GI,AOML,Palmer,South
2018-03-28T07:00:28Z,1522220429,2018,7,0,87.292,87.292,-66.9802,179.3388,1005.8,-0.54,-999.0,yes,yes,no,300234065333790,BD2GI,AOML,Palmer,South
2018-03-28T07:59:31Z,1522223971,2018,8,0,87.333,87.333,-66.9808,179.344,1005.8,-0.54,-999.0,yes,yes,no,300234065333790,BD2GI,AOML,Palmer,South
2018-03-28T09:00:00Z,1522227600,2018,9,0,87.375,87.375,-66.9794,179.3496,1006.3,-0.54,-999.0,yes,yes,no,300234065333790,BD2GI,AOML,Palmer,South
2018-03-28T10:00:28Z,1522231229,2018,10,0,87.417,87.417,-66.9766,179.3514,1005.7,-0.51,-999.0,yes,yes,no,300234065333790,BD2GI,AOML,Palmer,South
2018-03-28T10:59:31Z,1522234771,2018,11,0,87.458,87.458,-66.9738,179.353,1005.8,-0.51,-999.0,yes,yes,no,300234065333790,BD2GI,AOML,Palmer,South
2018-03-28T12:00:00Z,1522238400,2018,12,0,87.5,87.5,-66.971,179.3466,1005.8,-0.54,-999.0,yes,yes,no,300234065333790,BD2GI,AOML,Palmer,South
2018-03-28T13:00:28Z,1522242029,2018,13,0,87.542,87.542,-66.9686,179.333,1006.2,-0.54,-999.0,yes,yes,no,300234065333790,BD2GI,AOML,Palmer,South
2018-03-28T13:59:31Z,1522245571,2018,14,0,87.583,87.583,-66.9688,179.317,1006.6,-0.54,-999.0,yes,yes,no,300234065333790,BD2GI,AOML,Palmer,South
2018-03-28T15:00:00Z,1522249200,2018,15,0,87.625,87.625,-66.9706,179.3028,1006.9,-0.54,-999.0,yes,yes,no,300234065333790,BD2GI,AOML,Palmer,South
2018-03-28T16:00:28Z,1522252829,2018,16,0,87.667,87.667,-66.974,179.2932,1007.3,-0.54,-999.0,yes,yes,no,300234065333790,BD2GI,AOML,Palmer,South
2018-03-28T16:59:31Z,1522256371,2018,17,0,87.708,87.708,-66.9784,179.289,1007.5,-0.54,-999.0,yes,yes,no,300234065333790,BD2GI,AOML,Palmer,South
2018-03-28T18:00:00Z,1522260000,2018,18,0,87.75,87.75,-66.9824,179.2902,1007.8,-0.54,-999.0,yes,yes,no,300234065333790,BD2GI,AOML,Palmer,South
2018-03-28T19:00:28Z,1522263629,2018,19,0,87.792,87.792,-66.9876,179.2974,1007.9,-0.54,-999.0,yes,yes,no,300234065333790,BD2GI,AOML,Palmer,South
2018-03-28T19:59:31Z,1522267171,2018,20,0,87.833,87.833,-66.9912,179.3046,1008.3,-0.54,-999.0,yes,yes,no,300234065333790,BD2GI,AOML,Palmer,South
2018-03-28T21:00:00Z,1522270800,2018,21,0,87.875,87.875,-66.994,179.3118,1008.6,-0.54,-999.0,yes,yes,no,300234065333790,BD2GI,AOML,Palmer,South
2018-03-28T22:00:28Z,1522274429,2018,22,0,87.917,87.917,-66.995,179.316,1008.6,-0.54,-999.0,yes,yes,no,300234065333790,BD2GI,AOML,Palmer,South
2018-03-28T22:59:31Z,1522277971,2018,23,0,87.958,87.958,-66.9942,179.3168,1009.2,-0.54,-999.0,yes,yes,no,300234065333790,BD2GI,AOML,Palmer,South
2018-03-29T00:00:00Z,1522281600,2018,0,0,88.0,88.0,-66.9918,179.3126,1011.8,-0.54,-999.0,yes,yes,no,300234065333790,BD2GI,AOML,Palmer,South
2018-03-29T01:00:28Z,1522285229,2018,1,0,88.042,88.042,-66.9902,179.3056,1012.0,-0.54,-999.0,yes,yes,no,300234065333790,BD2GI,AOML,Palmer,South
2018-03-29T01:59:31Z,1522288771,2018,2,0,88.083,88.083,-66.9878,179.295,1012.4,-0.54,-999.0,yes,yes,no,300234065333790,BD2GI,AOML,Palmer,South
2018-03-29T03:00:00Z,1522292400,2018,3,0,88.125,88.125,-66.9892,179.2868,1012.8,-0.54,-999.0,yes,yes,no,300234065333790,BD2GI,AOML,Palmer,South
2018-03-29T04:00:28Z,1522296029,2018,4,0,88.167,88.167,-66.9926,179.2762,1013.1,-0.54,-999.0,yes,yes,no,300234065333790,BD2GI,AOML,Palmer,South
2018-03-29T04:59:31Z,1522299571,2018,5,0,88.208,88.208,-66.998,179.2616,1013.5,-0.51,-999.0,yes,yes,no,300234065333790,BD2GI,AOML,Palmer,South
2018-03-29T06:00:00Z,1522303200,2018,6,0,88.25,88.25,-67.005,179.2518,1006.7,-0.51,-999.0,yes,yes,no,300234065333790,BD2GI,AOML,Palmer,South
2018-03-29T07:00:28Z,1522306829,2018,7,0,88.292,88.292,-67.0102,179.2454,1006.2,-0.51,-999.0,yes,yes,no,300234065333790,BD2GI,AOML,Palmer,South
2018-03-29T07:59:31Z,1522310371,2018,8,0,88.333,88.333,-67.0128,179.2414,1006.1,-0.51,-999.0,yes,yes,no,300234065333790,BD2GI,AOML,Palmer,South
2018-03-29T09:00:00Z,1522314000,2018,9,0,88.375,88.375,-67.0144,179.2422,1005.6,-0.54,-999.0,yes,yes,no,300234065333790,BD2GI,AOML,Palmer,South
2018-03-29T10:00:28Z,1522317629,2018,10,0,88.417,88.417,-67.0156,179.244,1005.0,-0.54,-999.0,yes,yes,no,300234065333790,BD2GI,AOML,Palmer,South
2018-03-29T10:59:31Z,1522321171,2018,11,0,88.458,88.458,-67.0158,179.2418,1004.7,-0.54,-999.0,yes,yes,no,300234065333790,BD2GI,AOML,Palmer,South
2018-03-29T12:00:00Z,1522324800,2018,12,0,88.5,88.5,-67.0158,179.2418,1004.3,-0.51,-999.0,yes,yes,no,300234065333790,BD2GI,AOML,Palmer,South
2018-03-29T13:00:28Z,1522328429,2018,13,0,88.542,88.542,-67.0128,179.2234,1004.0,-0.51,-999.0,yes,yes,no,300234065333790,BD2GI,AOML,Palmer,South
2018-03-29T13:59:31Z,1522331971,2018,14,0,88.583,88.583,-67.0116,179.2124,1003.4,-0.51,-999.0,yes,yes,no,300234065333790,BD2GI,AOML,Palmer,South
2018-03-29T15:00:00Z,1522335600,2018,15,0,88.625,88.625,-67.0094,179.2012,1003.0,-0.51,-999.0,yes,yes,no,300234065333790,BD2GI,AOML,Palmer,South
2018-03-29T16:00:28Z,1522339229,2018,16,0,88.667,88.667,-67.0092,179.1876,1002.6,-0.54,-999.0,yes,yes,no,300234065333790,BD2GI,AOML,Palmer,South
2018-03-29T16:59:31Z,1522342771,2018,17,0,88.708,88.708,-67.0106,179.1764,1002.0,-0.54,-999.0,yes,yes,no,300234065333790,BD2GI,AOML,Palmer,South
2018-03-29T18:00:00Z,1522346400,2018,18,0,88.75,88.75,-67.0128,179.166,1001.6,-0.54,-999.0,yes,yes,no,300234065333790,BD2GI,AOML,Palmer,South
2018-03-29T19:00:28Z,1522350029,2018,19,0,88.792,88.792,-67.0164,179.1576,1001.1,-0.54,-999.0,yes,yes,no,300234065333790,BD2GI,AOML,Palmer,South
2018-03-29T19:59:31Z,1522353571,2018,20,0,88.833,88.833,-67.0204,179.1506,1001.1,-0.54,-999.0,yes,yes,no,300234065333790,BD2GI,AOML,Palmer,South
2018-03-29T21:00:00Z,1522357200,2018,21,0,88.875,88.875,-67.024,179.1492,1001.1,-0.51,-999.0,yes,yes,no,300234065333790,BD2GI,AOML,Palmer,South
2018-03-29T22:00:28Z,1522360829,2018,22,0,88.917,88.917,-67.027,179.1486,1001.0,-0.51,-999.0,yes,yes,no,300234065333790,BD2GI,AOML,Palmer,South
2018-03-29T22:59:31Z,1522364371,2018,23,0,88.958,88.958,-67.03,179.1474,1000.9,-0.47,-999.0,yes,yes,no,300234065333790,BD2GI,AOML,Palmer,South
2018-03-30T00:00:00Z,1522368000,2018,0,0,89.0,89.0,-67.0302,179.145,1000.6,-0.47,-999.0,yes,yes,no,300234065333790,BD2GI,AOML,Palmer,South
2018-03-30T01:00:28Z,1522371629,2018,1,0,89.042,89.042,-67.0302,179.1406,1000.4,-0.47,-999.0,yes,yes,no,300234065333790,BD2GI,AOML,Palmer,South
2018-03-30T01:59:31Z,1522375171,2018,2,0,89.083,89.083,-67.0302,179.1346,1000.2,-0.51,-999.0,yes,yes,no,300234065333790,BD2GI,AOML,Palmer,South
2018-03-30T03:00:00Z,1522378800,2018,3,0,89.125,89.125,-67.0294,179.1264,1000.2,-0.54,-999.0,yes,yes,no,300234065333790,BD2GI,AOML,Palmer,South
2018-03-30T04:00:28Z,1522382429,2018,4,0,89.167,89.167,-67.0286,179.1158,1000.0,-0.54,-999.0,yes,yes,no,300234065333790,BD2GI,AOML,Palmer,South
2018-03-30T04:59:31Z,1522385971,2018,5,0,89.208,89.208,-67.0296,179.1026,999.7,-0.51,-999.0,yes,yes,no,300234065333790,BD2GI,AOML,Palmer,South
2018-03-30T06:00:00Z,1522389600,2018,6,0,89.25,89.25,-67.0316,179.0874,999.2,-0.51,-999.0,yes,yes,no,300234065333790,BD2GI,AOML,Palmer,South
2018-03-30T07:00:28Z,1522393229,2018,7,0,89.292,89.292,-67.0338,179.075,999.4,-0.54,-999.0,yes,yes,no,300234065333790,BD2GI,AOML,Palmer,South
2018-03-30T07:59:31Z,1522396771,2018,8,0,89.333,89.333,-67.0374,179.0648,999.4,-0.51,-999.0,yes,yes,no,300234065333790,BD2GI,AOML,Palmer,South
2018-03-30T09:00:00Z,1522400400,2018,9,0,89.375,89.375,-67.0404,179.0582,999.1,-0.51,-999.0,yes,yes,no,300234065333790,BD2GI,AOML,Palmer,South
2018-03-30T10:00:28Z,1522404029,2018,10,0,89.417,89.417,-67.0432,179.0538,999.0,-0.51,-999.0,yes,yes,no,300234065333790,BD2GI,AOML,Palmer,South
2018-03-30T10:59:31Z,1522407571,2018,11,0,89.458,89.458,-67.045,179.0508,998.9,-0.51,-999.0,yes,yes,no,300234065333790,BD2GI,AOML,Palmer,South
2018-03-30T12:00:00Z,1522411200,2018,12,0,89.5,89.5,-67.0466,179.0486,998.8,-0.54,-999.0,yes,yes,no,300234065333790,BD2GI,AOML,Palmer,South
2018-03-30T13:00:28Z,1522414829,2018,13,0,89.542,89.542,-67.0468,179.0474,999.1,-0.54,-999.0,yes,yes,no,300234065333790,BD2GI,AOML,Palmer,South
2018-03-30T13:59:31Z,1522418371,2018,14,0,89.583,89.583,-67.0466,179.0434,999.8,-0.54,-999.0,yes,yes,no,300234065333790,BD2GI,AOML,Palmer,South
2018-03-30T15:00:00Z,1522422000,2018,15,0,89.625,89.625,-67.0456,179.0352,997.9,-0.54,-999.0,yes,yes,no,300234065333790,BD2GI,AOML,Palmer,South
2018-03-30T16:00:28Z,1522425629,2018,16,0,89.667,89.667,-67.045,179.024,997.1,-0.54,-999.0,yes,yes,no,300234065333790,BD2GI,AOML,Palmer,South
2018-03-30T16:59:31Z,1522429171,2018,17,0,89.708,89.708,-67.0438,179.0102,996.7,-0.58,-999.0,yes,yes,no,300234065333790,BD2GI,AOML,Palmer,South
2018-03-30T18:00:00Z,1522432800,2018,18,0,89.75,89.75,-67.0436,178.9938,997.7,-0.58,-999.0,yes,yes,no,300234065333790,BD2GI,AOML,Palmer,South
2018-03-30T19:00:28Z,1522436429,2018,19,0,89.792,89.792,-67.0446,178.9768,996.2,-0.54,-999.0,yes,yes,no,300234065333790,BD2GI,AOML,Palmer,South
2018-03-30T19:59:31Z,1522439971,2018,20,0,89.833,89.833,-67.0468,178.9638,996.9,-0.54,-999.0,yes,yes,no,300234065333790,BD2GI,AOML,Palmer,South
2018-03-30T21:00:00Z,1522443600,2018,21,0,89.875,89.875,-67.049,178.9552,998.1,-0.54,-999.0,yes,yes,no,300234065333790,BD2GI,AOML,Palmer,South
2018-03-30T22:00:28Z,1522447229,2018,22,0,89.917,89.917,-67.0504,178.948,996.6,-0.54,-999.0,yes,yes,no,300234065333790,BD2GI,AOML,Palmer,South
2018-03-30T22:59:31Z,1522450771,2018,23,0,89.958,89.958,-67.0512,178.9454,996.6,-0.51,-999.0,yes,yes,no,300234065333790,BD2GI,AOML,Palmer,South
2018-03-31T00:00:00Z,1522454400,2018,0,0,90.0,90.0,-67.0498,178.9436,996.3,-0.54,-999.0,yes,yes,no,300234065333790,BD2GI,AOML,Palmer,South
2018-03-31T01:00:28Z,1522458029,2018,1,0,90.042,90.042,-67.0474,178.9416,996.2,-0.54,-999.0,yes,yes,no,300234065333790,BD2GI,AOML,Palmer,South
2018-03-31T01:59:31Z,1522461571,2018,2,0,90.083,90.083,-67.0438,178.9382,996.3,-0.54,-999.0,yes,yes,no,300234065333790,BD2GI,AOML,Palmer,South
2018-03-31T03:00:00Z,1522465200,2018,3,0,90.125,90.125,-67.0388,178.9338,996.2,-0.54,-999.0,yes,yes,no,300234065333790,BD2GI,AOML,Palmer,South
2018-03-31T04:00:28Z,1522468829,2018,4,0,90.167,90.167,-67.034,178.9266,996.6,-0.54,-999.0,yes,yes,no,300234065333790,BD2GI,AOML,Palmer,South
2018-03-31T04:59:31Z,1522472371,2018,5,0,90.208,90.208,-67.029,178.9158,996.2,-0.58,-999.0,yes,yes,no,300234065333790,BD2GI,AOML,Palmer,South
2018-03-31T06:00:00Z,1522476000,2018,6,0,90.25,90.25,-67.0252,178.9018,996.6,-0.58,-999.0,yes,yes,no,300234065333790,BD2GI,AOML,Palmer,South
2018-03-31T07:00:28Z,1522479629,2018,7,0,90.292,90.292,-67.0236,178.8876,996.7,-0.58,-999.0,yes,yes,no,300234065333790,BD2GI,AOML,Palmer,South
2018-03-31T07:59:31Z,1522483171,2018,8,0,90.333,90.333,-67.0222,178.8754,998.1,-0.58,-999.0,yes,yes,no,300234065333790,BD2GI,AOML,Palmer,South
2018-03-31T09:00:00Z,1522486800,2018,9,0,90.375,90.375,-67.0222,178.8628,998.1,-0.58,-999.0,yes,yes,no,300234065333790,BD2GI,AOML,Palmer,South
2018-03-31T10:00:28Z,1522490429,2018,10,0,90.417,90.417,-67.0222,178.8546,998.7,-0.58,-999.0,yes,yes,no,300234065333790,BD2GI,AOML,Palmer,South
2018-03-31T10:59:31Z,1522493971,2018,11,0,90.458,90.458,-67.0232,178.85,1001.1,-0.58,-999.0,yes,yes,no,300234065333790,BD2GI,AOML,Palmer,South
2018-03-31T12:00:00Z,1522497600,2018,12,0,90.5,90.5,-67.0236,178.85,1001.8,-0.61,-999.0,yes,yes,no,300234065333790,BD2GI,AOML,Palmer,South
2018-03-31T13:00:28Z,1522501229,2018,13,0,90.542,90.542,-67.0216,178.8528,1003.2,-0.61,-999.0,yes,yes,no,300234065333790,BD2GI,AOML,Palmer,South
2018-03-31T13:59:31Z,1522504771,2018,14,0,90.583,90.583,-67.0184,178.8552,1003.8,-0.61,-999.0,yes,yes,no,300234065333790,BD2GI,AOML,Palmer,South
2018-03-31T15:00:00Z,1522508400,2018,15,0,90.625,90.625,-67.0138,178.8556,1012.7,-0.61,-999.0,yes,yes,no,300234065333790,BD2GI,AOML,Palmer,South
2018-03-31T16:00:28Z,1522512029,2018,16,0,90.667,90.667,-67.0086,178.852,1002.8,-0.61,-999.0,yes,yes,no,300234065333790,BD2GI,AOML,Palmer,South
2018-03-31T16:59:31Z,1522515571,2018,17,0,90.708,90.708,-67.0034,178.8442,997.8,-0.61,-999.0,yes,yes,no,300234065333790,BD2GI,AOML,Palmer,South
2018-03-31T18:00:00Z,1522519200,2018,18,0,90.75,90.75,-66.9996,178.834,997.0,-0.64,-999.0,yes,yes,no,300234065333790,BD2GI,AOML,Palmer,South
2018-03-31T19:00:28Z,1522522829,2018,19,0,90.792,90.792,-66.9978,178.8218,997.0,-0.64,-999.0,yes,yes,no,300234065333790,BD2GI,AOML,Palmer,South
2018-03-31T19:59:31Z,1522526371,2018,20,0,90.833,90.833,-66.9964,178.808,996.9,-0.64,-999.0,yes,yes,no,300234065333790,BD2GI,AOML,Palmer,South
2018-03-31T21:00:00Z,1522530000,2018,21,0,90.875,90.875,-66.9958,178.7966,996.9,-0.64,-999.0,yes,yes,no,300234065333790,BD2GI,AOML,Palmer,South
2018-03-31T22:00:28Z,1522533629,2018,22,0,90.917,90.917,-66.996,178.7886,996.8,-0.64,-999.0,yes,yes,no,300234065333790,BD2GI,AOML,Palmer,South
2018-03-31T22:59:31Z,1522537171,2018,23,0,90.958,90.958,-66.9972,178.7824,996.7,-0.61,-999.0,yes,yes,no,300234065333790,BD2GI,AOML,Palmer,South
2018-04-01T00:00:00Z,1522540800,2018,0,0,91.0,91.0,-66.9988,178.778,996.2,-0.61,-999.0,yes,yes,no,300234065333790,BD2GI,AOML,Palmer,South
2018-04-01T01:00:28Z,1522544429,2018,1,0,91.042,91.042,-66.9994,178.7794,995.6,-0.61,-999.0,yes,yes,no,300234065333790,BD2GI,AOML,Palmer,South
2018-04-01T01:59:31Z,1522547971,2018,2,0,91.083,91.083,-66.9984,178.7804,995.4,-0.61,-999.0,yes,yes,no,300234065333790,BD2GI,AOML,Palmer,South
2018-04-01T03:00:00Z,1522551600,2018,3,0,91.125,91.125,-66.9962,178.7804,994.9,-0.61,-999.0,yes,yes,no,300234065333790,BD2GI,AOML,Palmer,South
2018-04-01T04:00:28Z,1522555229,2018,4,0,91.167,91.167,-66.994,178.7754,994.2,-0.61,-999.0,yes,yes,no,300234065333790,BD2GI,AOML,Palmer,South
2018-04-01T04:59:31Z,1522558771,2018,5,0,91.208,91.208,-66.992,178.7694,993.7,-0.61,-999.0,yes,yes,no,300234065333790,BD2GI,AOML,Palmer,South
2018-04-01T06:00:00Z,1522562400,2018,6,0,91.25,91.25,-66.991,178.7564,992.8,-0.61,-999.0,yes,yes,no,300234065333790,BD2GI,AOML,Palmer,South
2018-04-01T07:00:28Z,1522566029,2018,7,0,91.292,91.292,-66.9908,178.745,992.1,-0.61,-999.0,yes,yes,no,300234065333790,BD2GI,AOML,Palmer,South
2018-04-01T07:59:31Z,1522569571,2018,8,0,91.333,91.333,-66.9912,178.7338,991.3,-0.61,-999.0,yes,yes,no,300234065333790,BD2GI,AOML,Palmer,South
2018-04-01T09:00:00Z,1522573200,2018,9,0,91.375,91.375,-66.9924,178.7216,990.8,-0.61,-999.0,yes,yes,no,300234065333790,BD2GI,AOML,Palmer,South
2018-04-01T10:00:28Z,1522576829,2018,10,0,91.417,91.417,-66.9942,178.7122,990.0,-0.61,-999.0,yes,yes,no,300234065333790,BD2GI,AOML,Palmer,South
2018-04-01T10:59:31Z,1522580371,2018,11,0,91.458,91.458,-66.9942,178.7122,989.2,-0.61,-999.0,yes,yes,no,300234065333790,BD2GI,AOML,Palmer,South
2018-04-01T12:00:00Z,1522584000,2018,12,0,91.5,91.5,-66.9982,178.6924,988.4,-0.61,-999.0,yes,yes,no,300234065333790,BD2GI,AOML,Palmer,South
2018-04-01T13:00:28Z,1522587629,2018,13,0,91.542,91.542,-66.9992,178.6812,986.9,-0.64,-999.0,yes,yes,no,300234065333790,BD2GI,AOML,Palmer,South
2018-04-01T13:59:31Z,1522591171,2018,14,0,91.583,91.583,-66.9992,178.6812,986.4,-0.64,-999.0,yes,yes,no,300234065333790,BD2GI,AOML,Palmer,South
2018-04-01T15:00:00Z,1522594800,2018,15,0,91.625,91.625,-67.0048,178.6726,985.2,-0.64,-999.0,yes,yes,no,300234065333790,BD2GI,AOML,Palmer,South
2018-04-01T16:00:28Z,1522598429,2018,16,0,91.667,91.667,-67.0056,178.6676,984.3,-0.61,-999.0,yes,yes,no,300234065333790,BD2GI,AOML,Palmer,South
2018-04-01T16:59:31Z,1522601971,2018,17,0,91.708,91.708,-67.0052,178.662,983.3,-0.61,-999.0,yes,yes,no,300234065333790,BD2GI,AOML,Palmer,South
2018-04-01T18:00:00Z,1522605600,2018,18,0,91.75,91.75,-67.0052,178.662,982.3,-0.61,-999.0,yes,yes,no,300234065333790,BD2GI,AOML,Palmer,South
2018-04-01T19:00:28Z,1522609229,2018,19,0,91.792,91.792,-67.004,178.6392,981.7,-0.61,-999.0,yes,yes,no,300234065333790,BD2GI,AOML,Palmer,South
2018-04-01T19:59:31Z,1522612771,2018,20,0,91.833,91.833,-67.004,178.6392,981.0,-0.61,-999.0,yes,yes,no,300234065333790,BD2GI,AOML,Palmer,South
2018-04-01T21:00:00Z,1522616400,2018,21,0,91.875,91.875,-67.0062,178.6066,980.7,-0.61,-999.0,yes,yes,no,300234065333790,BD2GI,AOML,Palmer,South
2018-04-01T22:00:28Z,1522620029,2018,22,0,91.917,91.917,-67.009,178.5902,980.1,-0.61,-999.0,yes,yes,no,300234065333790,BD2GI,AOML,Palmer,South
2018-04-01T22:59:31Z,1522623571,2018,23,0,91.958,91.958,-67.012,178.576,979.6,-0.61,-999.0,yes,yes,no,300234065333790,BD2GI,AOML,Palmer,South
2018-04-02T00:00:00Z,1522627200,2018,0,0,92.0,92.0,-67.012,178.576,979.0,-0.61,-999.0,yes,yes,no,300234065333790,BD2GI,AOML,Palmer,South
2018-04-02T01:00:28Z,1522630829,2018,1,0,92.042,92.042,-67.0186,178.5522,978.5,-0.61,-999.0,yes,yes,no,300234065333790,BD2GI,AOML,Palmer,South
2018-04-02T01:59:31Z,1522634371,2018,2,0,92.083,92.083,-67.0208,178.545,978.5,-0.61,-999.0,yes,yes,no,300234065333790,BD2GI,AOML,Palmer,South
2018-04-02T03:00:00Z,1522638000,2018,3,0,92.125,92.125,-67.0224,178.54,978.5,-0.61,-999.0,yes,yes,no,300234065333790,BD2GI,AOML,Palmer,South
2018-04-02T04:00:28Z,1522641629,2018,4,0,92.167,92.167,-67.0234,178.5356,978.5,-0.64,-999.0,yes,yes,no,300234065333790,BD2GI,AOML,Palmer,South
2018-04-02T04:59:31Z,1522645171,2018,5,0,92.208,92.208,-67.0228,178.5342,978.8,-0.64,-999.0,yes,yes,no,300234065333790,BD2GI,AOML,Palmer,South
2018-04-02T06:00:00Z,1522648800,2018,6,0,92.25,92.25,-67.0208,178.5286,979.1,-0.68,-999.0,yes,yes,no,300234065333790,BD2GI,AOML,Palmer,South
2018-04-02T07:00:28Z,1522652429,2018,7,0,92.292,92.292,-67.0182,178.522,979.5,-0.68,-999.0,yes,yes,no,300234065333790,BD2GI,AOML,Palmer,South
2018-04-02T07:59:31Z,1522655971,2018,8,0,92.333,92.333,-67.015,178.511,979.8,-0.68,-999.0,yes,yes,no,300234065333790,BD2GI,AOML,Palmer,South
2018-04-02T09:00:00Z,1522659600,2018,9,0,92.375,92.375,-67.012,178.4996,980.4,-0.68,-999.0,yes,yes,no,300234065333790,BD2GI,AOML,Palmer,South
2018-04-02T10:00:28Z,1522663229,2018,10,0,92.417,92.417,-67.0102,178.4822,980.9,-0.71,-999.0,yes,yes,no,300234065333790,BD2GI,AOML,Palmer,South
2018-04-02T10:59:31Z,1522666771,2018,11,0,92.458,92.458,-67.01,178.4668,981.5,-0.71,-999.0,yes,yes,no,300234065333790,BD2GI,AOML,Palmer,South
2018-04-02T12:00:00Z,1522670400,2018,12,0,92.5,92.5,-67.0108,178.4522,982.1,-0.71,-999.0,yes,yes,no,300234065333790,BD2GI,AOML,Palmer,South
2018-04-02T13:00:28Z,1522674029,2018,13,0,92.542,92.542,-67.0128,178.4398,982.9,-0.71,-999.0,yes,yes,no,300234065333790,BD2GI,AOML,Palmer,South
2018-04-02T13:59:31Z,1522677571,2018,14,0,92.583,92.583,-67.015,178.4336,983.5,-0.75,-999.0,yes,yes,no,300234065333790,BD2GI,AOML,Palmer,South
2018-04-02T15:00:00Z,1522681200,2018,15,0,92.625,92.625,-67.0166,178.4322,984.0,-0.75,-999.0,yes,yes,no,300234065333790,BD2GI,AOML,Palmer,South
2018-04-02T16:00:28Z,1522684829,2018,16,0,92.667,92.667,-67.0172,178.434,984.4,-0.75,-999.0,yes,yes,no,300234065333790,BD2GI,AOML,Palmer,South
2018-04-02T16:59:31Z,1522688371,2018,17,0,92.708,92.708,-67.0152,178.4378,984.8,-0.75,-999.0,yes,yes,no,300234065333790,BD2GI,AOML,Palmer,South
2018-04-02T18:00:00Z,1522692000,2018,18,0,92.75,92.75,-67.0126,178.4398,985.2,-0.75,-999.0,yes,yes,no,300234065333790,BD2GI,AOML,Palmer,South
2018-04-02T19:00:28Z,1522695629,2018,19,0,92.792,92.792,-67.0096,178.4388,985.6,-0.75,-999.0,yes,yes,no,300234065333790,BD2GI,AOML,Palmer,South
2018-04-02T19:59:31Z,1522699171,2018,20,0,92.833,92.833,-67.0064,178.433,985.6,-0.75,-999.0,yes,yes,no,300234065333790,BD2GI,AOML,Palmer,South
2018-04-02T21:00:00Z,1522702800,2018,21,0,92.875,92.875,-67.0032,178.4236,985.8,-0.75,-999.0,yes,yes,no,300234065333790,BD2GI,AOML,Palmer,South
2018-04-02T22:00:28Z,1522706429,2018,22,0,92.917,92.917,-67.0018,178.4122,985.8,-0.75,-999.0,yes,yes,no,300234065333790,BD2GI,AOML,Palmer,South
2018-04-02T22:59:31Z,1522709971,2018,23,0,92.958,92.958,-66.9994,178.4012,985.5,-0.75,-999.0,yes,yes,no,300234065333790,BD2GI,AOML,Palmer,South
2018-04-03T00:00:00Z,1522713600,2018,0,0,93.0,93.0,-66.9994,178.3882,985.4,-0.75,-999.0,yes,yes,no,300234065333790,BD2GI,AOML,Palmer,South
2018-04-03T01:00:28Z,1522717229,2018,1,0,93.042,93.042,-67.0002,178.3776,985.1,-0.75,-999.0,yes,yes,no,300234065333790,BD2GI,AOML,Palmer,South
2018-04-03T01:59:31Z,1522720771,2018,2,0,93.083,93.083,-67.0014,178.3674,984.5,-0.75,-999.0,yes,yes,no,300234065333790,BD2GI,AOML,Palmer,South
2018-04-03T03:00:00Z,1522724400,2018,3,0,93.125,93.125,-67.0046,178.3594,983.9,-0.75,-999.0,yes,yes,no,300234065333790,BD2GI,AOML,Palmer,South
2018-04-03T04:00:28Z,1522728029,2018,4,0,93.167,93.167,-67.0064,178.3586,983.5,-0.75,-999.0,yes,yes,no,300234065333790,BD2GI,AOML,Palmer,South
2018-04-03T04:59:31Z,1522731571,2018,5,0,93.208,93.208,-67.0114,178.3548,982.6,-0.75,-999.0,yes,yes,no,300234065333790,BD2GI,AOML,Palmer,South